Time,TemperatureF,DewpointF,PressureIn,WindDirection,WindDirectionDegrees,WindSpeedMPH,WindSpeedGustMPH,Humidity,HourlyPrecipIn,Conditions,Clouds,dailyrainin,SoftwareType,DateUTC
2013-01-22 00:04:00,8.0,-2.0,30.22,WSW,239,8.0,21.0,64,0.00,,,0.00,,2013-01-22 05:04:00,
2013-01-22 00:12:00,8.0,-2.0,30.22,WSW,239,8.0,21.0,64,0.00,,,0.00,,2013-01-22 05:12:00,
2013-01-22 00:23:00,8.0,-2.0,30.22,West,275,8.0,18.0,64,0.00,,,0.00,,2013-01-22 05:23:00,
2013-01-22 00:33:00,8.0,-2.0,30.22,West,275,8.0,18.0,64,0.00,,,0.00,,2013-01-22 05:33:00,
2013-01-22 00:43:00,7.0,-3.0,30.23,WSW,237,9.0,18.0,64,0.00,,,0.00,,2013-01-22 05:43:00,
2013-01-22 00:52:00,7.0,-3.0,30.23,West,263,7.0,18.0,64,0.00,,,0.00,,2013-01-22 05:52:00,
2013-01-22 01:02:00,7.0,-2.0,30.23,WNW,293,9.0,19.0,65,0.00,,,0.00,,2013-01-22 06:02:00,
2013-01-22 01:12:00,7.0,-2.0,30.23,WNW,293,9.0,19.0,65,0.00,,,0.00,,2013-01-22 06:12:00,
2013-01-22 01:22:00,7.0,-2.0,30.23,WNW,282,10.0,18.0,66,0.00,,,0.00,,2013-01-22 06:22:00,
2013-01-22 01:33:00,7.0,-2.0,30.23,West,267,8.0,16.0,66,0.00,,,0.00,,2013-01-22 06:33:00,
2013-01-22 01:43:00,7.0,-2.0,30.23,West,267,8.0,16.0,66,0.00,,,0.00,,2013-01-22 06:43:00,
2013-01-22 01:52:00,7.0,-2.0,30.23,WSW,241,8.0,16.0,66,0.00,,,0.00,,2013-01-22 06:52:00,
2013-01-22 02:02:00,7.0,-2.0,30.23,WSW,239,11.0,18.0,66,0.00,,,0.00,,2013-01-22 07:02:00,
2013-01-22 02:12:00,7.0,-2.0,30.23,WSW,239,11.0,18.0,66,0.00,,,0.00,,2013-01-22 07:12:00,
2013-01-22 02:22:00,6.0,-3.0,30.23,SW,232,10.0,17.0,67,0.00,,,0.00,,2013-01-22 07:22:00,
2013-01-22 02:33:00,6.0,-3.0,30.24,West,273,9.0,16.0,67,0.00,,,0.00,,2013-01-22 07:33:00,
2013-01-22 02:42:00,6.0,-3.0,30.24,West,273,9.0,16.0,67,0.00,,,0.00,,2013-01-22 07:42:00,
2013-01-22 02:52:00,6.0,-2.0,30.24,WSW,240,8.0,16.0,68,0.00,,,0.00,,2013-01-22 07:52:00,
2013-01-22 03:02:00,6.0,-2.0,30.25,WSW,253,6.0,15.0,69,0.00,,,0.00,,2013-01-22 08:02:00,
2013-01-22 03:12:00,6.0,-2.0,30.25,WSW,253,6.0,15.0,69,0.00,,,0.00,,2013-01-22 08:12:00,
2013-01-22 03:22:00,6.0,-2.0,30.25,West,263,8.0,18.0,69,0.00,,,0.00,,2013-01-22 08:22:00,
2013-01-22 03:32:00,6.0,-2.0,30.26,SW,222,6.0,17.0,70,0.00,,,0.00,,2013-01-22 08:32:00,
2013-01-22 03:43:00,6.0,-2.0,30.26,SW,222,6.0,17.0,70,0.00,,,0.00,,2013-01-22 08:43:00,
2013-01-22 03:52:00,5.0,-3.0,30.26,WSW,246,7.0,15.0,69,0.00,,,0.00,,2013-01-22 08:52:00,
2013-01-22 04:02:00,5.0,-3.0,30.26,West,274,7.0,13.0,70,0.00,,,0.00,,2013-01-22 09:02:00,
2013-01-22 04:12:00,5.0,-3.0,30.26,West,274,7.0,13.0,70,0.00,,,0.00,,2013-01-22 09:12:00,
2013-01-22 04:22:00,5.0,-2.0,30.27,West,263,7.0,14.0,71,0.00,,,0.00,,2013-01-22 09:22:00,
2013-01-22 04:32:00,5.0,-2.0,30.27,WSW,249,8.0,15.0,71,0.00,,,0.00,,2013-01-22 09:32:00,
2013-01-22 04:43:00,5.0,-2.0,30.27,WSW,249,8.0,15.0,71,0.00,,,0.00,,2013-01-22 09:43:00,
2013-01-22 04:53:00,5.0,-2.0,30.27,SW,221,8.0,15.0,71,0.00,,,0.00,,2013-01-22 09:53:00,
2013-01-22 05:02:00,5.0,-3.0,30.27,West,264,6.0,15.0,70,0.00,,,0.00,,2013-01-22 10:02:00,
2013-01-22 05:12:00,5.0,-3.0,30.27,West,264,6.0,15.0,70,0.00,,,0.00,,2013-01-22 10:12:00,
2013-01-22 05:22:00,5.0,-3.0,30.27,West,264,6.0,15.0,70,0.00,,,0.00,,2013-01-22 10:22:00,
2013-01-22 05:32:00,4.0,-3.0,30.29,West,259,6.0,12.0,72,0.00,,,0.00,,2013-01-22 10:32:00,
2013-01-22 05:42:00,4.0,-3.0,30.29,West,259,6.0,12.0,72,0.00,,,0.00,,2013-01-22 10:42:00,
2013-01-22 05:53:00,4.0,-3.0,30.29,West,259,6.0,12.0,72,0.00,,,0.00,,2013-01-22 10:53:00,
2013-01-22 06:02:00,4.0,-3.0,30.29,WSW,254,4.0,13.0,72,0.00,,,0.00,,2013-01-22 11:02:00,
2013-01-22 06:12:00,4.0,-3.0,30.29,WSW,254,4.0,13.0,72,0.00,,,0.00,,2013-01-22 11:12:00,
2013-01-22 06:23:00,4.0,-3.0,30.30,SW,223,4.0,11.0,72,0.00,,,0.00,,2013-01-22 11:23:00,
2013-01-22 06:33:00,4.0,-3.0,30.31,West,259,6.0,12.0,71,0.00,,,0.00,,2013-01-22 11:33:00,
2013-01-22 06:43:00,4.0,-3.0,30.31,West,259,6.0,12.0,71,0.00,,,0.00,,2013-01-22 11:43:00,
2013-01-22 06:53:00,4.0,-3.0,30.31,SW,233,6.0,14.0,72,0.00,,,0.00,,2013-01-22 11:53:00,
2013-01-22 07:04:00,4.0,-3.0,30.32,West,260,4.0,12.0,73,0.00,,,0.00,,2013-01-22 12:04:00,
2013-01-22 07:13:00,4.0,-3.0,30.32,West,260,4.0,12.0,73,0.00,,,0.00,,2013-01-22 12:13:00,
2013-01-22 07:23:00,4.0,-3.0,30.32,WSW,245,7.0,13.0,73,0.00,,,0.00,,2013-01-22 12:23:00,
2013-01-22 07:33:00,4.0,-3.0,30.32,WSW,245,7.0,13.0,73,0.00,,,0.00,,2013-01-22 12:33:00,
2013-01-22 07:43:00,4.0,-3.0,30.33,West,267,4.0,14.0,73,0.00,,,0.00,,2013-01-22 12:43:00,
2013-01-22 07:53:00,4.0,-3.0,30.33,West,259,8.0,13.0,73,0.00,,,0.00,,2013-01-22 12:53:00,
2013-01-22 08:04:00,4.0,-2.0,30.33,WSW,248,8.0,14.0,74,0.00,,,0.00,,2013-01-22 13:04:00,
2013-01-22 08:14:00,4.0,-2.0,30.33,WSW,248,8.0,14.0,74,0.00,,,0.00,,2013-01-22 13:14:00,
2013-01-22 08:23:00,4.0,-2.0,30.33,WSW,248,8.0,14.0,74,0.00,,,0.00,,2013-01-22 13:23:00,
2013-01-22 08:33:00,4.0,-2.0,30.34,WSW,258,6.0,12.0,74,0.00,,,0.00,,2013-01-22 13:33:00,
2013-01-22 08:43:00,4.0,-2.0,30.34,WSW,258,6.0,12.0,74,0.00,,,0.00,,2013-01-22 13:43:00,
2013-01-22 08:54:00,4.0,-2.0,30.35,WSW,240,8.0,14.0,74,0.00,,,0.00,,2013-01-22 13:54:00,
2013-01-22 09:03:00,5.0,-2.0,30.35,WSW,255,8.0,14.0,73,0.00,,,0.00,,2013-01-22 14:03:00,
2013-01-22 09:13:00,5.0,-2.0,30.35,WSW,255,8.0,14.0,73,0.00,,,0.00,,2013-01-22 14:13:00,
2013-01-22 09:23:00,5.0,-2.0,30.36,West,271,8.0,14.0,73,0.00,,,0.00,,2013-01-22 14:23:00,
2013-01-22 09:34:00,6.0,-1.0,30.36,West,276,9.0,13.0,72,0.00,,,0.00,,2013-01-22 14:34:00,
2013-01-22 09:44:00,6.0,-1.0,30.36,West,276,9.0,13.0,72,0.00,,,0.00,,2013-01-22 14:44:00,
2013-01-22 09:54:00,6.0,-1.0,30.36,WSW,246,8.0,15.0,71,0.00,,,0.00,,2013-01-22 14:54:00,
2013-01-22 10:04:00,7.0,-1.0,30.37,WSW,238,9.0,15.0,70,0.00,,,0.00,,2013-01-22 15:04:00,
2013-01-22 10:13:00,7.0,-1.0,30.37,WSW,238,9.0,15.0,70,0.00,,,0.00,,2013-01-22 15:13:00,
2013-01-22 10:24:00,7.0,-1.0,30.37,WSW,252,8.0,17.0,68,0.00,,,0.00,,2013-01-22 15:24:00,
2013-01-22 10:34:00,8.0,0.0,30.38,WNW,283,10.0,17.0,68,0.00,,,0.00,,2013-01-22 15:34:00,
2013-01-22 10:43:00,8.0,0.0,30.38,WNW,283,10.0,17.0,68,0.00,,,0.00,,2013-01-22 15:43:00,
2013-01-22 10:54:00,9.0,0.0,30.38,West,279,11.0,14.0,67,0.00,,,0.00,,2013-01-22 15:54:00,
2013-01-22 11:04:00,9.0,0.0,30.38,WNW,284,10.0,17.0,67,0.00,,,0.00,,2013-01-22 16:04:00,
2013-01-22 11:13:00,9.0,0.0,30.38,WNW,284,10.0,17.0,67,0.00,,,0.00,,2013-01-22 16:13:00,
2013-01-22 11:24:00,9.0,0.0,30.38,WNW,284,9.0,17.0,65,0.00,,,0.00,,2013-01-22 16:24:00,
2013-01-22 11:33:00,10.0,1.0,30.38,West,275,10.0,14.0,65,0.00,,,0.00,,2013-01-22 16:33:00,
2013-01-22 11:43:00,10.0,1.0,30.38,West,275,10.0,14.0,65,0.00,,,0.00,,2013-01-22 16:43:00,
2013-01-22 11:54:00,10.0,0.0,30.38,WSW,253,6.0,16.0,63,0.00,,,0.00,,2013-01-22 16:54:00,
2013-01-22 12:04:00,11.0,0.0,30.38,West,275,11.0,18.0,59,0.00,,,0.00,,2013-01-22 17:04:00,
2013-01-22 12:13:00,11.0,0.0,30.38,West,275,11.0,18.0,59,0.00,,,0.00,,2013-01-22 17:13:00,
2013-01-22 12:23:00,11.0,0.0,30.38,West,275,11.0,18.0,59,0.00,,,0.00,,2013-01-22 17:23:00,
2013-01-22 12:34:00,10.0,-1.0,30.37,West,280,9.0,16.0,60,0.00,,,0.00,,2013-01-22 17:34:00,
2013-01-22 12:44:00,10.0,-1.0,30.37,West,280,9.0,16.0,60,0.00,,,0.00,,2013-01-22 17:44:00,
2013-01-22 12:54:00,11.0,-1.0,30.37,West,269,8.0,18.0,58,0.00,,,0.00,,2013-01-22 17:54:00,
2013-01-22 13:04:00,11.0,0.0,30.36,West,264,8.0,14.0,59,0.00,,,0.00,,2013-01-22 18:04:00,
2013-01-22 13:13:00,11.0,0.0,30.36,West,264,8.0,14.0,59,0.00,,,0.00,,2013-01-22 18:13:00,
2013-01-22 13:24:00,11.0,0.0,30.36,West,264,8.0,14.0,59,0.00,,,0.00,,2013-01-22 18:24:00,
2013-01-22 13:34:00,11.0,0.0,30.35,WNW,290,9.0,15.0,61,0.00,,,0.00,,2013-01-22 18:34:00,
2013-01-22 13:43:00,11.0,0.0,30.35,WNW,290,9.0,15.0,61,0.00,,,0.00,,2013-01-22 18:43:00,
2013-01-22 13:54:00,11.0,0.0,30.34,WSW,244,7.0,15.0,59,0.00,,,0.00,,2013-01-22 18:54:00,
2013-01-22 14:04:00,12.0,0.0,30.34,West,277,9.0,12.0,59,0.00,,,0.00,,2013-01-22 19:04:00,
2013-01-22 14:13:00,12.0,0.0,30.34,West,277,9.0,12.0,59,0.00,,,0.00,,2013-01-22 19:13:00,
2013-01-22 14:24:00,12.0,-1.0,30.34,SW,236,7.0,15.0,56,0.00,,,0.00,,2013-01-22 19:24:00,
2013-01-22 14:34:00,12.0,0.0,30.34,West,262,10.0,19.0,57,0.00,,,0.00,,2013-01-22 19:34:00,
2013-01-22 14:43:00,12.0,0.0,30.34,West,262,10.0,19.0,57,0.00,,,0.00,,2013-01-22 19:43:00,
2013-01-22 14:54:00,12.0,0.0,30.35,SW,232,8.0,16.0,57,0.00,,,0.00,,2013-01-22 19:54:00,
2013-01-22 15:03:00,13.0,0.0,30.35,WSW,252,10.0,16.0,56,0.00,,,0.00,,2013-01-22 20:03:00,
2013-01-22 15:13:00,13.0,0.0,30.35,WSW,252,10.0,16.0,56,0.00,,,0.00,,2013-01-22 20:13:00,
2013-01-22 15:23:00,13.0,1.0,30.35,West,278,7.0,14.0,57,0.00,,,0.00,,2013-01-22 20:23:00,
2013-01-22 15:33:00,14.0,0.0,30.35,West,265,7.0,15.0,53,0.00,,,0.00,,2013-01-22 20:33:00,
2013-01-22 15:43:00,14.0,0.0,30.35,West,265,7.0,15.0,53,0.00,,,0.00,,2013-01-22 20:43:00,
2013-01-22 15:53:00,13.0,-2.0,30.35,West,272,10.0,17.0,51,0.00,,,0.00,,2013-01-22 20:53:00,
2013-01-22 16:04:00,12.0,-1.0,30.35,WSW,246,8.0,16.0,54,0.00,,,0.00,,2013-01-22 21:04:00,
2013-01-22 16:13:00,12.0,-1.0,30.35,WSW,246,8.0,16.0,54,0.00,,,0.00,,2013-01-22 21:13:00,
2013-01-22 16:23:00,12.0,-1.0,30.35,SW,221,5.0,9.0,54,0.00,,,0.00,,2013-01-22 21:23:00,
2013-01-22 16:33:00,13.0,-1.0,30.35,West,275,7.0,13.0,53,0.00,,,0.00,,2013-01-22 21:33:00,
2013-01-22 16:43:00,13.0,-1.0,30.35,West,275,7.0,13.0,53,0.00,,,0.00,,2013-01-22 21:43:00,
2013-01-22 16:53:00,13.0,-1.0,30.35,WSW,251,5.0,13.0,53,0.00,,,0.00,,2013-01-22 21:53:00,
2013-01-22 17:03:00,12.0,-1.0,30.35,West,279,8.0,13.0,54,0.00,,,0.00,,2013-01-22 22:03:00,
2013-01-22 17:13:00,12.0,-1.0,30.35,West,279,8.0,13.0,54,0.00,,,0.00,,2013-01-22 22:13:00,
2013-01-22 17:23:00,12.0,-1.0,30.35,West,279,8.0,13.0,54,0.00,,,0.00,,2013-01-22 22:23:00,
2013-01-22 17:33:00,12.0,-1.0,30.35,West,279,8.0,13.0,54,0.00,,,0.00,,2013-01-22 22:33:00,
2013-01-22 17:43:00,11.0,-1.0,30.35,West,259,7.0,13.0,57,0.00,,,0.00,,2013-01-22 22:43:00,
2013-01-22 17:53:00,11.0,-2.0,30.36,WSW,241,5.0,12.0,56,0.00,,,0.00,,2013-01-22 22:53:00,
2013-01-22 18:03:00,11.0,-2.0,30.36,WSW,242,7.0,13.0,56,0.00,,,0.00,,2013-01-22 23:03:00,
2013-01-22 18:12:00,11.0,-2.0,30.36,WSW,242,7.0,13.0,56,0.00,,,0.00,,2013-01-22 23:12:00,
2013-01-22 18:24:00,10.0,-1.0,30.36,SW,229,4.0,12.0,59,0.00,,,0.00,,2013-01-22 23:24:00,
2013-01-22 18:33:00,10.0,-1.0,30.36,WSW,238,3.0,8.0,59,0.00,,,0.00,,2013-01-22 23:33:00,
2013-01-22 18:43:00,10.0,-1.0,30.36,WSW,238,3.0,8.0,59,0.00,,,0.00,,2013-01-22 23:43:00,
2013-01-22 18:53:00,11.0,-1.0,30.36,West,263,6.0,12.0,58,0.00,,,0.00,,2013-01-22 23:53:00,
2013-01-22 19:03:00,11.0,0.0,30.36,West,277,5.0,9.0,59,0.00,,,0.00,,2013-01-23 00:03:00,
2013-01-22 19:13:00,11.0,0.0,30.36,West,277,5.0,9.0,59,0.00,,,0.00,,2013-01-23 00:13:00,
2013-01-22 19:23:00,11.0,-1.0,30.36,West,263,5.0,12.0,58,0.00,,,0.00,,2013-01-23 00:23:00,
2013-01-22 19:33:00,10.0,-1.0,30.36,West,273,6.0,11.0,59,0.00,,,0.00,,2013-01-23 00:33:00,
2013-01-22 19:43:00,10.0,-1.0,30.36,West,273,6.0,11.0,59,0.00,,,0.00,,2013-01-23 00:43:00,
2013-01-22 19:53:00,10.0,-1.0,30.36,West,273,5.0,9.0,61,0.00,,,0.00,,2013-01-23 00:53:00,
2013-01-22 20:03:00,10.0,-1.0,30.35,West,271,5.0,12.0,60,0.00,,,0.00,,2013-01-23 01:03:00,
2013-01-22 20:13:00,10.0,-1.0,30.35,West,271,5.0,12.0,60,0.00,,,0.00,,2013-01-23 01:13:00,
2013-01-22 20:23:00,10.0,0.0,30.35,West,275,4.0,10.0,62,0.00,,,0.00,,2013-01-23 01:23:00,
2013-01-22 20:33:00,9.0,-1.0,30.35,West,273,5.0,9.0,63,0.00,,,0.00,,2013-01-23 01:33:00,
2013-01-22 20:43:00,9.0,-1.0,30.35,West,273,5.0,9.0,63,0.00,,,0.00,,2013-01-23 01:43:00,
2013-01-22 20:53:00,9.0,-1.0,30.35,West,273,5.0,9.0,63,0.00,,,0.00,,2013-01-23 01:53:00,
2013-01-22 21:03:00,9.0,0.0,30.36,West,270,3.0,6.0,66,0.00,,,0.00,,2013-01-23 02:03:00,
2013-01-22 21:13:00,9.0,0.0,30.36,West,270,3.0,6.0,66,0.00,,,0.00,,2013-01-23 02:13:00,
2013-01-22 21:23:00,9.0,0.0,30.36,West,270,3.0,6.0,66,0.00,,,0.00,,2013-01-23 02:23:00,
2013-01-22 21:33:00,9.0,0.0,30.36,West,270,3.0,6.0,66,0.00,,,0.00,,2013-01-23 02:33:00,
2013-01-22 21:43:00,9.0,0.0,30.36,West,270,3.0,6.0,66,0.00,,,0.00,,2013-01-23 02:43:00,
2013-01-22 21:53:00,9.0,0.0,30.35,West,264,2.0,6.0,66,0.00,,,0.00,,2013-01-23 02:53:00,
2013-01-22 22:03:00,9.0,0.0,30.36,West,277,3.0,7.0,66,0.00,,,0.00,,2013-01-23 03:03:00,
2013-01-22 22:13:00,9.0,0.0,30.36,West,277,3.0,7.0,66,0.00,,,0.00,,2013-01-23 03:13:00,
2013-01-22 22:23:00,9.0,0.0,30.36,SW,236,2.0,7.0,65,0.00,,,0.00,,2013-01-23 03:23:00,
2013-01-22 22:33:00,10.0,0.0,30.36,WSW,241,3.0,7.0,64,0.00,,,0.00,,2013-01-23 03:33:00,
2013-01-22 22:43:00,10.0,0.0,30.36,WSW,241,3.0,7.0,64,0.00,,,0.00,,2013-01-23 03:43:00,
2013-01-22 22:53:00,10.0,0.0,30.36,SW,231,4.0,10.0,64,0.00,,,0.00,,2013-01-23 03:53:00,
2013-01-22 23:03:00,10.0,0.0,30.37,WSW,248,4.0,10.0,62,0.00,,,0.00,,2013-01-23 04:03:00,
2013-01-22 23:13:00,10.0,0.0,30.37,WSW,248,4.0,10.0,62,0.00,,,0.00,,2013-01-23 04:13:00,
2013-01-22 23:23:00,10.0,0.0,30.37,WSW,248,4.0,10.0,62,0.00,,,0.00,,2013-01-23 04:23:00,
2013-01-22 23:33:00,10.0,0.0,30.37,WSW,248,4.0,10.0,62,0.00,,,0.00,,2013-01-23 04:33:00,
2013-01-22 23:53:00,9.0,-1.0,30.36,SW,232,3.0,9.0,63,0.00,,,0.00,,2013-01-23 04:53:00,